"Period start","avg(HW err(1)/warn(2) (#))","avg(Visibility (m))","avg(Weather code (#))","avg(Precip intensity (mm/h))","min(HW err(1)/warn(2) (#))","max(HW err(1)/warn(2) (#))","std(HW err(1)/warn(2) (#))","med(HW err(1)/warn(2) (#))","min(Visibility (m))","max(Visibility (m))","std(Visibility (m))","med(Visibility (m))","min(Weather code (#))","max(Weather code (#))","std(Weather code (#))","med(Weather code (#))","min(Precip intensity (mm/h))","max(Precip intensity (mm/h))","std(Precip intensity (mm/h))","med(Precip intensity (mm/h))"
2017-05-22 00:00:00,2,1515,71,5.44,2,2,0,2,1016,2202,385,1507,71,71,0,71,2.60,8.10,1.68,5.25
2017-05-22 00:10:00,2,1775,71,3.83,2,2,0,2,1567,2508,295,1615,71,71,0,71,2.50,5.00,0.75,4.00
2017-05-22 00:20:00,2,1401,71,5.90,2,2,0,2,671,1965,444,1360,71,71,0,71,3.80,10.15,1.94,5.62
2017-05-22 00:30:00,2,1492,71,3.87,2,2,0,2,806,2046,319,1480,71,71,0,71,1.85,7.00,1.39,3.42
2017-05-22 00:40:00,2,2652,71,2.08,2,2,0,2,1616,3044,422,2856,71,71,0,71,1.35,3.75,0.82,1.78
2017-05-22 00:50:00,2,4755,71,1.60,2,2,0,2,2935,8691,1693,4346,71,71,0,71,0.25,2.75,0.67,1.58
2017-05-22 01:00:00,2,6996,71,0.40,2,2,0,2,3295,19297,4410,5375,71,71,0,71,0.00,1.10,0.34,0.23
2017-05-22 01:10:00,2,5514,71,0.26,2,2,0,2,3177,7923,1521,5746,71,71,0,71,0.05,0.95,0.28,0.12
2017-05-22 01:20:00,2,6272,71,0.17,2,2,0,2,4892,8219,973,6296,71,71,0,71,0.05,0.40,0.12,0.15
2017-05-22 01:30:00,2,4402,71,0.47,2,2,0,2,3250,5996,883,4546,71,71,0,71,0.10,0.75,0.22,0.47
2017-05-22 01:40:00,2,4834,71,0.92,2,2,0,2,2931,8871,1868,4256,71,71,0,71,0.15,1.40,0.40,1.02
2017-05-22 01:50:00,2,6687,71,0.93,2,2,0,2,4096,9439,1637,6269,71,71,0,71,0.05,1.85,0.49,0.88
2017-05-22 02:00:00,2,7010,71,0.78,2,2,0,2,3768,12441,2312,6240,71,71,0,71,0.40,1.35,0.35,0.68
2017-05-22 02:10:00,2,4519,71,1.14,2,2,0,2,3712,5471,557,4328,71,71,0,71,0.25,2.70,0.66,1.00
2017-05-22 02:20:00,2,4206,71,0.79,2,2,0,2,3127,4821,417,4290,71,71,0,71,0.30,2.10,0.49,0.68
2017-05-22 02:30:00,2,8348,71,0.33,2,2,0,2,4634,11455,2174,8326,71,71,0,71,0.00,1.10,0.40,0.10
2017-05-22 02:40:00,2,8432,71,0.20,2,2,0,2,6999,11395,1428,7981,71,71,0,71,0.00,0.75,0.20,0.15
2017-05-22 02:50:00,2,13921,71,0.07,2,2,0,2,8268,21458,4017,12435,71,71,0,71,0.00,0.25,0.09,0.03
2017-05-22 03:00:00,2,25253,14,0.00,2,2,0,2,16982,36882,6337,25870,0,71,28,0,0.00,0.00,0.00,0.00
2017-05-22 03:10:00,2,29674,51,0.01,2,2,0,2,21399,44592,6902,28902,0,61,19,61,0.00,0.05,0.02,0.00
2017-05-22 03:20:00,2,40435,0,0.00,2,2,0,2,32701,50000,5814,38689,0,0,0,0,0.00,0.00,0.00,0.00
2017-05-22 03:30:00,2,26826,0,0.00,2,2,0,2,17065,34434,5383,26808,0,0,0,0,0.00,0.00,0.00,0.00
2017-05-22 03:40:00,2,24044,0,0.00,2,2,0,2,16444,32146,4592,23655,0,0,0,0,0.00,0.00,0.00,0.00
2017-05-22 03:50:00,2,27518,0,0.00,2,2,0,2,17787,40825,6867,26470,0,0,0,0,0.00,0.00,0.00,0.00
2017-05-22 04:00:00,2,15324,4,0.01,2,2,0,2,7903,26625,5595,13810,0,41,12,0,0.00,0.05,0.02,0.00
2017-05-22 04:10:00,2,8952,59,0.11,2,2,0,2,7052,9717,799,9257,41,71,15,71,0.00,0.45,0.12,0.08
2017-05-22 04:20:00,2,12726,71,0.03,2,2,0,2,9807,16932,2327,12199,71,71,0,71,0.00,0.10,0.04,0.00
2017-05-22 04:30:00,2,18126,71,0.03,2,2,0,2,12365,35635,6338,17185,71,71,0,71,0.00,0.05,0.03,0.03
2017-05-22 04:40:00,2,19598,7,0.00,2,2,0,2,14175,28896,4909,17898,0,71,21,0,0.00,0.00,0.00,0.00
2017-05-22 04:50:00,2,34249,0,0.00,2,2,0,2,24019,47930,7245,34712,0,0,0,0,0.00,0.00,0.00,0.00
2017-05-22 05:00:00,2,32935,0,0.00,2,2,0,2,26331,40873,4407,32839,0,0,0,0,0.00,0.00,0.00,0.00
2017-05-22 05:10:00,2,40226,0,0.00,2,2,0,2,24110,50000,7973,42276,0,0,0,0,0.00,0.00,0.00,0.00
2017-05-22 05:20:00,2,34343,0,0.00,2,2,0,2,26241,43592,5453,33546,0,0,0,0,0.00,0.00,0.00,0.00
2017-05-22 05:30:00,2,33300,0,0.00,2,2,0,2,23886,43447,5844,32621,0,0,0,0,0.00,0.00,0.00,0.00
2017-05-22 05:40:00,2,36986,0,0.00,2,2,0,2,19700,48818,10745,40036,0,0,0,0,0.00,0.00,0.00,0.00
2017-05-22 05:50:00,2,40242,0,0.00,2,2,0,2,34491,48729,5187,38590,0,0,0,0,0.00,0.00,0.00,0.00
2017-05-22 06:00:00,2,39583,0,0.00,2,2,0,2,23602,50000,9187,38658,0,0,0,0,0.00,0.00,0.00,0.00
2017-05-22 06:10:00,1,30285,0,0.00,0,2,1,2,21732,38282,5258,31540,0,0,0,0,0.00,0.00,0.00,0.00
2017-05-22 06:20:00,0,37985,0,0.00,0,0,0,0,28123,47217,7517,36222,0,0,0,0,0.00,0.00,0.00,0.00
2017-05-22 06:30:00,0,38107,0,0.00,0,0,0,0,28800,48871,6014,38354,0,0,0,0,0.00,0.00,0.00,0.00
2017-05-22 06:40:00,0,44134,0,0.00,0,0,0,0,38100,50000,4268,43768,0,0,0,0,0.00,0.00,0.00,0.00
2017-05-22 06:50:00,1,42533,0,0.00,0,2,1,0,27932,50000,7917,46408,0,0,0,0,0.00,0.00,0.00,0.00
2017-05-22 07:00:00,0,44450,0,0.00,0,0,0,0,35358,50000,4647,44592,0,0,0,0,0.00,0.00,0.00,0.00
2017-05-22 07:10:00,2,39797,0,0.00,0,2,1,2,28371,50000,7376,38546,0,0,0,0,0.00,0.00,0.00,0.00
2017-05-22 07:20:00,2,37427,0,0.00,2,2,0,2,22640,50000,9823,35729,0,0,0,0,0.00,0.00,0.00,0.00
2017-05-22 07:30:00,0,40054,0,0.00,0,2,1,0,29763,49092,6009,40038,0,0,0,0,0.00,0.00,0.00,0.00
2017-05-22 07:40:00,0,38927,0,0.00,0,2,1,0,30495,49697,6475,38399,0,0,0,0,0.00,0.00,0.00,0.00
2017-05-22 07:50:00,2,43078,0,0.00,2,2,0,2,33220,49554,5031,45162,0,0,0,0,0.00,0.00,0.00,0.00
2017-05-22 08:00:00,2,43805,0,0.00,2,2,0,2,35672,50000,4930,45381,0,0,0,0,0.00,0.00,0.00,0.00
2017-05-22 08:10:00,2,46190,0,0.00,2,2,0,2,36671,50000,3853,46778,0,0,0,0,0.00,0.00,0.00,0.00
2017-05-22 08:20:00,2,44600,0,0.00,2,2,0,2,34138,50000,5031,45049,0,0,0,0,0.00,0.00,0.00,0.00
2017-05-22 08:30:00,2,43813,0,0.00,2,2,0,2,37191,49428,4054,44092,0,0,0,0,0.00,0.00,0.00,0.00
2017-05-22 08:40:00,2,42530,0,0.00,2,2,0,2,32755,50000,6050,43036,0,0,0,0,0.00,0.00,0.00,0.00
2017-05-22 08:50:00,2,46138,0,0.00,2,2,0,2,36901,50000,4094,47828,0,0,0,0,0.00,0.00,0.00,0.00
2017-05-22 09:00:00,1,46661,0,0.00,0,2,1,2,40558,50000,3843,48177,0,0,0,0,0.00,0.00,0.00,0.00
2017-05-22 09:10:00,2,45288,0,0.00,2,2,0,2,34423,50000,5269,47527,0,0,0,0,0.00,0.00,0.00,0.00
2017-05-22 09:20:00,2,41488,0,0.00,2,2,0,2,29828,50000,6248,43242,0,0,0,0,0.00,0.00,0.00,0.00
2017-05-22 09:30:00,2,46506,0,0.00,2,2,0,2,38858,50000,3755,47608,0,0,0,0,0.00,0.00,0.00,0.00
2017-05-22 09:40:00,2,48831,0,0.00,2,2,0,2,45612,50000,1576,49697,0,0,0,0,0.00,0.00,0.00,0.00
2017-05-22 09:50:00,2,43147,0,0.00,2,2,0,2,37623,50000,3721,43880,0,0,0,0,0.00,0.00,0.00,0.00
2017-05-22 10:00:00,2,44304,0,0.00,2,2,0,2,30634,50000,5857,45846,0,0,0,0,0.00,0.00,0.00,0.00
2017-05-22 10:10:00,2,46334,0,0.00,2,2,0,2,38157,50000,3941,47544,0,0,0,0,0.00,0.00,0.00,0.00
2017-05-22 10:20:00,2,42502,0,0.00,2,2,0,2,37355,48323,3649,41793,0,0,0,0,0.00,0.00,0.00,0.00
2017-05-22 10:30:00,2,40682,0,0.00,2,2,0,2,33546,45773,3488,41034,0,0,0,0,0.00,0.00,0.00,0.00
2017-05-22 10:40:00,2,47141,0,0.00,2,2,0,2,36918,50000,4582,50000,0,0,0,0,0.00,0.00,0.00,0.00
2017-05-22 10:50:00,2,46711,0,0.00,2,2,0,2,41422,50000,3492,47853,0,0,0,0,0.00,0.00,0.00,0.00
2017-05-22 11:00:00,2,49234,0,0.00,2,2,0,2,46141,50000,1241,50000,0,0,0,0,0.00,0.00,0.00,0.00
2017-05-22 11:10:00,2,48364,0,0.00,2,2,0,2,43718,50000,2462,50000,0,0,0,0,0.00,0.00,0.00,0.00
2017-05-22 11:20:00,2,49321,0,0.00,2,2,0,2,45205,50000,1428,50000,0,0,0,0,0.00,0.00,0.00,0.00
2017-05-22 11:30:00,2,47871,0,0.00,2,2,0,2,42429,50000,2443,48538,0,0,0,0,0.00,0.00,0.00,0.00
2017-05-22 11:40:00,2,46633,0,0.00,2,2,0,2,35840,50000,4448,48782,0,0,0,0,0.00,0.00,0.00,0.00
2017-05-22 11:50:00,2,49434,0,0.00,2,2,0,2,44336,50000,1699,50000,0,0,0,0,0.00,0.00,0.00,0.00
2017-05-22 12:00:00,2,49412,0,0.00,2,2,0,2,44713,50000,1576,50000,0,0,0,0,0.00,0.00,0.00,0.00
2017-05-22 12:10:00,2,49742,0,0.00,2,2,0,2,47419,50000,774,50000,0,0,0,0,0.00,0.00,0.00,0.00
2017-05-22 12:20:00,2,49991,0,0.00,2,2,0,2,49912,50000,26,50000,0,0,0,0,0.00,0.00,0.00,0.00
2017-05-22 12:30:00,2,49630,0,0.00,2,2,0,2,47050,50000,889,50000,0,0,0,0,0.00,0.00,0.00,0.00
2017-05-22 12:40:00,2,49938,0,0.00,2,2,0,2,49375,50000,188,50000,0,0,0,0,0.00,0.00,0.00,0.00
2017-05-22 12:50:00,2,48817,0,0.00,2,2,0,2,46371,50000,1162,48830,0,0,0,0,0.00,0.00,0.00,0.00
2017-05-22 13:00:00,2,49825,0,0.00,2,2,0,2,48250,50000,525,50000,0,0,0,0,0.00,0.00,0.00,0.00
2017-05-22 13:10:00,2,50000,0,0.00,2,2,0,2,50000,50000,0,50000,0,0,0,0,0.00,0.00,0.00,0.00
2017-05-22 13:20:00,2,50000,0,0.00,2,2,0,2,50000,50000,0,50000,0,0,0,0,0.00,0.00,0.00,0.00
2017-05-22 13:30:00,2,50000,0,0.00,2,2,0,2,50000,50000,0,50000,0,0,0,0,0.00,0.00,0.00,0.00
2017-05-22 13:40:00,2,49906,0,0.00,2,2,0,2,49062,50000,281,50000,0,0,0,0,0.00,0.00,0.00,0.00
2017-05-22 13:50:00,2,49920,0,0.00,2,2,0,2,49204,50000,239,50000,0,0,0,0,0.00,0.00,0.00,0.00
2017-05-22 14:00:00,2,50000,0,0.00,2,2,0,2,50000,50000,0,50000,0,0,0,0,0.00,0.00,0.00,0.00
2017-05-22 14:10:00,2,49750,0,0.00,2,2,0,2,47497,50000,751,50000,0,0,0,0,0.00,0.00,0.00,0.00
2017-05-22 14:20:00,2,50000,0,0.00,2,2,0,2,50000,50000,0,50000,0,0,0,0,0.00,0.00,0.00,0.00
2017-05-22 14:30:00,2,50000,0,0.00,2,2,0,2,50000,50000,0,50000,0,0,0,0,0.00,0.00,0.00,0.00
2017-05-22 14:40:00,2,50000,0,0.00,2,2,0,2,50000,50000,0,50000,0,0,0,0,0.00,0.00,0.00,0.00
2017-05-22 14:50:00,2,49242,0,0.00,2,2,0,2,45284,50000,1444,50000,0,0,0,0,0.00,0.00,0.00,0.00
2017-05-22 15:00:00,2,50000,0,0.00,2,2,0,2,50000,50000,0,50000,0,0,0,0,0.00,0.00,0.00,0.00
"Period start","avg(HW err(1)/warn(2) (#))","avg(Visibility (m))","avg(Weather code (#))","avg(Precip intensity (mm/h))","min(HW err(1)/warn(2) (#))","max(HW err(1)/warn(2) (#))","std(HW err(1)/warn(2) (#))","med(HW err(1)/warn(2) (#))","min(Visibility (m))","max(Visibility (m))","std(Visibility (m))","med(Visibility (m))","min(Weather code (#))","max(Weather code (#))","std(Weather code (#))","med(Weather code (#))","min(Precip intensity (mm/h))","max(Precip intensity (mm/h))","std(Precip intensity (mm/h))","med(Precip intensity (mm/h))"
2017-05-22 15:00:00,2,49977,0,0.00,2,2,0,2,49768,50000,70,50000,0,0,0,0,0.00,0.00,0.00,0.00
2017-05-22 15:10:00,2,50000,0,0.00,2,2,0,2,50000,50000,0,50000,0,0,0,0,0.00,0.00,0.00,0.00
2017-05-22 15:20:00,2,50000,0,0.00,2,2,0,2,50000,50000,0,50000,0,0,0,0,0.00,0.00,0.00,0.00
2017-05-22 15:30:00,2,49641,0,0.00,2,2,0,2,47465,50000,756,50000,0,0,0,0,0.00,0.00,0.00,0.00
2017-05-22 15:40:00,2,49819,0,0.00,2,2,0,2,48768,50000,391,50000,0,0,0,0,0.00,0.00,0.00,0.00
2017-05-22 15:50:00,2,44882,0,0.00,2,2,0,2,35779,50000,4150,45698,0,0,0,0,0.00,0.00,0.00,0.00
2017-05-22 16:00:00,2,46463,0,0.00,2,2,0,2,33620,50000,5518,49091,0,0,0,0,0.00,0.00,0.00,0.00
2017-05-22 16:10:00,2,30594,0,0.00,2,2,0,2,3204,47963,17379,40332,0,0,0,0,0.00,0.00,0.00,0.00
2017-05-22 16:20:00,2,2050,10,0.00,2,2,0,2,733,4259,946,1922,10,10,0,10,0.00,0.00,0.00,0.00
2017-05-22 16:30:00,2,3730,10,0.00,2,2,0,2,656,17017,4642,2586,10,10,0,10,0.00,0.00,0.00,0.00
2017-05-22 16:40:00,2,40715,10,0.00,2,2,0,2,4111,50000,15278,49884,10,10,0,10,0.00,0.00,0.00,0.00
2017-05-22 16:50:00,2,49896,1,0.00,2,2,0,2,48965,50000,310,50000,0,10,3,0,0.00,0.00,0.00,0.00
2017-05-22 17:00:00,2,3045,7,0.00,2,2,0,2,625,17144,4842,1074,0,10,5,10,0.00,0.00,0.00,0.00
2017-05-22 17:10:00,2,28857,10,0.00,2,2,0,2,1978,47096,15571,34732,10,10,0,10,0.00,0.00,0.00,0.00
2017-05-22 17:20:00,2,49229,2,0.00,2,2,0,2,45179,50000,1490,50000,0,10,4,0,0.00,0.00,0.00,0.00
2017-05-22 17:30:00,2,45607,0,0.00,2,2,0,2,30469,50000,7652,50000,0,0,0,0,0.00,0.00,0.00,0.00
2017-05-22 17:40:00,2,50000,0,0.00,2,2,0,2,50000,50000,0,50000,0,0,0,0,0.00,0.00,0.00,0.00
2017-05-22 17:50:00,2,50000,0,0.00,2,2,0,2,50000,50000,0,50000,0,0,0,0,0.00,0.00,0.00,0.00
2017-05-22 18:00:00,2,49078,0,0.00,2,2,0,2,42904,50000,2153,50000,0,0,0,0,0.00,0.00,0.00,0.00
2017-05-22 18:10:00,2,49571,0,0.00,2,2,0,2,46635,50000,996,50000,0,0,0,0,0.00,0.00,0.00,0.00
2017-05-22 18:20:00,2,30009,0,0.00,2,2,0,2,4744,50000,20476,35962,0,0,0,0,0.00,0.00,0.00,0.00
2017-05-22 18:30:00,2,28242,0,0.00,2,2,0,2,5351,47871,16635,33478,0,0,0,0,0.00,0.00,0.00,0.00
2017-05-22 18:40:00,2,22571,1,0.00,2,2,0,2,3944,47225,17965,20833,0,10,3,0,0.00,0.00,0.00,0.00
2017-05-22 18:50:00,2,5390,10,0.00,2,2,0,2,1152,11558,3172,5051,10,10,0,10,0.00,0.00,0.00,0.00
2017-05-22 19:00:00,2,1366,8,0.00,2,2,0,2,751,3610,835,1006,0,10,4,10,0.00,0.00,0.00,0.00
2017-05-22 19:10:00,2,41734,3,0.00,2,2,0,2,17371,50000,9404,43302,0,10,5,0,0.00,0.00,0.00,0.00
2017-05-22 19:20:00,2,33216,0,0.00,2,2,0,2,6841,50000,16403,38454,0,0,0,0,0.00,0.00,0.00,0.00
2017-05-22 19:30:00,2,48291,0,0.00,2,2,0,2,38378,50000,3421,50000,0,0,0,0,0.00,0.00,0.00,0.00
2017-05-22 19:40:00,2,49444,0,0.00,2,2,0,2,47575,50000,882,50000,0,0,0,0,0.00,0.00,0.00,0.00
2017-05-22 19:50:00,2,46705,0,0.00,2,2,0,2,40396,50000,3340,47046,0,0,0,0,0.00,0.00,0.00,0.00
2017-05-22 20:00:00,2,48637,0,0.00,2,2,0,2,40159,50000,3044,50000,0,0,0,0,0.00,0.00,0.00,0.00
2017-05-22 20:10:00,2,47142,0,0.00,2,2,0,2,37541,50000,4422,49503,0,0,0,0,0.00,0.00,0.00,0.00
2017-05-22 20:20:00,2,49124,0,0.00,2,2,0,2,42554,50000,2218,50000,0,0,0,0,0.00,0.00,0.00,0.00
2017-05-22 20:30:00,2,46927,0,0.00,2,2,0,2,42181,50000,3073,48560,0,0,0,0,0.00,0.00,0.00,0.00
2017-05-22 20:40:00,2,46122,0,0.00,2,2,0,2,38319,50000,3425,45868,0,0,0,0,0.00,0.00,0.00,0.00
2017-05-22 20:50:00,2,48173,0,0.00,2,2,0,2,44285,50000,2074,48894,0,0,0,0,0.00,0.00,0.00,0.00
2017-05-22 21:00:00,2,44975,0,0.00,2,2,0,2,39123,50000,4572,45075,0,0,0,0,0.00,0.00,0.00,0.00
2017-05-22 21:10:00,2,42687,0,0.00,2,2,0,2,28028,50000,8052,45794,0,0,0,0,0.00,0.00,0.00,0.00
2017-05-22 21:20:00,2,43530,0,0.00,2,2,0,2,32647,50000,6094,45486,0,0,0,0,0.00,0.00,0.00,0.00
2017-05-22 21:30:00,2,46147,0,0.00,2,2,0,2,36326,50000,4416,47278,0,0,0,0,0.00,0.00,0.00,0.00
2017-05-22 21:40:00,2,45220,0,0.00,2,2,0,2,37354,50000,4301,45735,0,0,0,0,0.00,0.00,0.00,0.00
2017-05-22 21:50:00,2,49072,0,0.00,2,2,0,2,44568,50000,1890,50000,0,0,0,0,0.00,0.00,0.00,0.00
2017-05-22 22:00:00,2,41082,0,0.00,2,2,0,2,29318,50000,9034,42275,0,0,0,0,0.00,0.00,0.00,0.00
2017-05-22 22:10:00,2,41853,0,0.00,2,2,0,2,29979,50000,5544,41107,0,0,0,0,0.00,0.00,0.00,0.00
2017-05-22 22:20:00,2,40233,0,0.00,2,2,0,2,27451,50000,7967,40796,0,0,0,0,0.00,0.00,0.00,0.00
2017-05-22 22:30:00,2,43766,0,0.00,2,2,0,2,26571,50000,6358,45124,0,0,0,0,0.00,0.00,0.00,0.00
2017-05-22 22:40:00,2,41290,0,0.00,2,2,0,2,34900,50000,6159,38126,0,0,0,0,0.00,0.00,0.00,0.00
2017-05-22 22:50:00,2,39173,0,0.00,2,2,0,2,24858,50000,7652,39626,0,0,0,0,0.00,0.00,0.00,0.00
2017-05-22 23:00:00,2,41394,0,0.00,2,2,0,2,24662,50000,10388,48847,0,0,0,0,0.00,0.00,0.00,0.00
2017-05-22 23:10:00,2,37319,0,0.00,2,2,0,2,21824,49208,9311,37180,0,0,0,0,0.00,0.00,0.00,0.00
2017-05-22 23:20:00,2,38467,0,0.00,2,2,0,2,29284,50000,7191,38540,0,0,0,0,0.00,0.00,0.00,0.00
2017-05-22 23:30:00,2,39408,0,0.00,2,2,0,2,28009,50000,8478,38458,0,0,0,0,0.00,0.00,0.00,0.00
2017-05-22 23:40:00,2,41145,0,0.00,2,2,0,2,30621,47896,5012,42206,0,0,0,0,0.00,0.00,0.00,0.00
2017-05-22 23:50:00,2,31107,0,0.00,2,2,0,2,14417,50000,10935,26423,0,0,0,0,0.00,0.00,0.00,0.00
